ARIANE 44LP+ R/B, 23538

Orbit data source: Space-Track

ARIANE 44LP+ R/B, 23538 is space debris in HEO originally from a launch on Tue, 28 Mar 1995 UTC launched from the French Guiana (FRGUI). Debris objects in space refer to the collection of defunct objects orbiting the Earth. Examples of debris include non-operational satellites, rocket bodies, and fragments generated from explosions, collisions, or faulty payload assembly.

Loading next visibility...
Identifier
23538, 1995-016C
Orbit
HEO
Last TLE update
12 hours ago
Origin
Manufacturer
Ae/LesM
Mission
Spacecraft
Bus & Motor
ARIANE H10+/S, HM-7B
Mass
2,080 kg wet, 2,080 kg dry
Launch date (UTC)
1995-03-28 (30 years ago)
Launch vehicle
Unknown
Launch site
French Guiana (FRGUI)
Object type
Payload
Rocket body
Debris
Shape & HBR
Cyl, 14.1 m
Radar Cross Section
31.447 m², Large (>1 m²)

Expand to show TLE details & history

TLE from 12 hours ago
0 ARIANE 44LP+ R/B
1 23538U 95016C   25187.87894224  .00028791  00000-0  26157-2 0  9999
2 23538   6.3616 105.2985 6127536 167.8530 218.9449  3.88814530314167
Epoch: 2025-07-06T21:05Z
TLE epoch observation values (Epoch: 2025-07-06T21:05:40.609Z)
Latitude
0.00003°
Longitude
-136.27361°
Altitude
20,242.667 km
Speed
2.572 km/s
True Right ascension
07h 00m 58s
True Declination
0° 00' 00"
Sunlit
Object was in daylight at epoch
Visualization orbit readout
Latitude
0.33002°
Longitude
-133.74534°
Altitude
19,900.032 km
Speed
2.647 km/s
Apparent Right ascension
07h 32m 49s
Apparent Declination
-7° 21' 08"
Sunlit
Object is in daylight
Visualization observer readout
Local Sidereal Time
21:34:59
Azimuth
48.241° ENE
Elevation
-47.499°
Doppler factor
1
Orbital elements
Apogee altitude
21,181.415 km
Perigee altitude
239.326 km
Semi-major axis
17,088.508 km
Eccentricity
0.61275
Inclination
6.3616°
RAAN
105.2985°
Arg. of periapsis
167.853°
True anomaly
Unknown
Mean anomaly
218.9449°
Eccentric anomaly
Unknown
Mean motion
0.9716 °/min
Orbital period
370.52 mins
BSTAR
0.0026157
Loading maneuver chart data...
Loading SW <> Apogee altitude chart data...
Loading historical data...
Loading historical data...
Loading historical data...
Loading historical data...
Loading historical data...
Loading historical data...
Loading historical data...
Other satellites on launch #16 in the year 1995 (1995-03-28 UTC)

ARIANE 44LP+ R/B Visibility forecast

Observer location: undefined°, undefined°

Span
Click to sort rows by Start time (UTC) header in descending order
Start Az.
Max El. time (UTC)
Max El. Az.
Max El.
End time (UTC)
End Az.
248 mins2025-07-07 12:20:01.632Z174.046° S2025-07-07 14:49:01.632Z120.575° SE15.917°2025-07-07 16:28:01.632Z111.077° ESE
252 mins2025-07-07 19:41:01.632Z239.18° WSW2025-07-07 23:30:01.632Z204.389° SW26.844°2025-07-07 23:53:01.632Z148.886° SSE
|